Jacksonville Craig, FL

1:50 PM EDT on October 17, 2017 (GMT -0400)
Craig Municipal

Weather History for KCRG - August, 2013

Change the Weather History Date:

Tuesday, August 13, 2013

  Actual Average Record
Temperature  
Mean Temperature 86 °F -  
Max Temperature 96 °F 87 °F 96 °F (2013)
Min Temperature 77 °F 71 °F 71 °F (1996)
Cooling Degree Days 22    
Growing Degree Days 36 (Base 50)    
Moisture  
Dew Point 73 °F    
Average Humidity 68    
Maximum Humidity 88    
Minimum Humidity 38    
Precipitation  
Precipitation 0.00 in - - ()
Sea Level Pressure  
Sea Level Pressure 29.99 in    
Wind  
Wind Speed 4 mph (SSW)    
Max Wind Speed 10 mph    
Max Gust Speed -    
Visibility 10 miles    
Events      
Averages and records for this station are not official NWS values.
T = Trace of Precipitation, MM = Missing Value Source: NWS Daily Summary

Daily Weather History Graph

Daily Weather History Graph

Search for Another Location

Airport or City:

Trip Planner

Search our weather history database for the weather conditions in past years. The results will help you decide how hot, cold, wet, or windy it might be!

Date:

Astronomy

Aug. 13, 2013 Rise Set
Actual Time 6:51 AM EDT 8:09 PM EDT
Civil Twilight 6:26 AM EDT 8:34 PM EDT
Nautical Twilight 5:56 AM EDT 9:04 PM EDT
Astronomical Twilight 5:25 AM EDT 9:35 PM EDT
Moon 1:12 PM EDT (8/13) No Moon Set
Length of Visible Light 14h 08m
Length of Day
13h 17m
Waxing Crescent, 41% of the Moon is Illuminated
Aug 13
Waxing Crescent
Aug 14
First Quarter
Aug 20
Full
Aug 28
Last Quarter
Sep 5
New

Hourly Weather History & Observations

Time (EDT) Temp. Heat Index Dew Point Humidity Pressure Visibility Wind Dir Wind Speed Gust Speed Precip Events Conditions
12:53 AM 78.1 °F - 73.0 °F 84% 30.03 in 10.0 mi South 3.5 mph - N/A   Clear
1:53 AM 80.1 °F 84.5 °F 73.9 °F 81% 30.03 in 10.0 mi SW 4.6 mph - N/A   Clear
2:53 AM 80.1 °F 84.5 °F 73.9 °F 81% 30.03 in 10.0 mi Calm Calm - N/A   Clear
3:53 AM 79.0 °F - 73.9 °F 84% 30.02 in 10.0 mi Calm Calm - N/A   Partly Cloudy
4:53 AM 79.0 °F - 73.9 °F 84% 30.01 in 10.0 mi SW 3.5 mph - N/A   Clear
5:53 AM 79.0 °F - 73.9 °F 84% 30.02 in 10.0 mi Calm Calm - N/A   Clear
6:53 AM 77.0 °F - 73.0 °F 88% 30.02 in 10.0 mi Calm Calm - N/A   Clear
7:33 AM 78.8 °F - 73.4 °F 83% 30.02 in 10.0 mi SSW 3.5 mph - N/A   Partly Cloudy
7:53 AM 80.1 °F 84.5 °F 73.9 °F 81% 30.02 in 10.0 mi SSW 5.8 mph - N/A   Partly Cloudy
8:53 AM 82.0 °F 88.6 °F 75.0 °F 79% 30.03 in 10.0 mi SW 8.1 mph - N/A   Clear
9:53 AM 84.9 °F 94.1 °F 75.9 °F 74% 30.03 in 10.0 mi SSW 8.1 mph - N/A   Partly Cloudy
10:53 AM 87.1 °F 95.4 °F 73.9 °F 65% 30.04 in 10.0 mi Calm Calm - N/A   Clear
11:53 AM 91.0 °F 99.3 °F 73.0 °F 55% 30.03 in 10.0 mi WSW 3.5 mph - N/A   Clear
12:53 PM 91.9 °F 99.5 °F 72.0 °F 52% 30.01 in 10.0 mi WSW 6.9 mph - N/A   Clear
1:53 PM 91.9 °F 99.5 °F 72.0 °F 52% 30.00 in 10.0 mi Calm Calm - N/A   Mostly Cloudy
2:53 PM 93.0 °F 100.7 °F 72.0 °F 50% 29.97 in 10.0 mi Variable 3.5 mph - N/A   Scattered Clouds
3:53 PM 93.9 °F 102.1 °F 72.0 °F 49% 29.95 in 10.0 mi Variable 6.9 mph - N/A   Partly Cloudy
4:53 PM 96.1 °F 105.6 °F 73.0 °F 47% 29.93 in 10.0 mi SW 9.2 mph - N/A   Scattered Clouds
5:53 PM 96.1 °F 101.6 °F 69.1 °F 41% 29.92 in 10.0 mi West 10.4 mph - N/A   Clear
6:53 PM 95.0 °F 97.9 °F 66.0 °F 38% 29.91 in 10.0 mi WSW 6.9 mph - N/A   Clear
7:53 PM 88.0 °F 98.5 °F 75.9 °F 67% 29.92 in 10.0 mi SE 4.6 mph - N/A   Clear
8:53 PM 86.0 °F 95.1 °F 75.0 °F 70% 29.93 in 10.0 mi South 6.9 mph - N/A   Clear
9:53 PM 84.9 °F 93.3 °F 75.0 °F 72% 29.95 in 10.0 mi South 5.8 mph - N/A   Clear
10:53 PM 84.0 °F 91.9 °F 75.0 °F 74% 29.97 in 10.0 mi SSW 5.8 mph - N/A   Clear
11:53 PM 84.0 °F 91.9 °F 75.0 °F 74% 29.98 in 10.0 mi SW 4.6 mph - N/A   Clear